Flag for U.S.A. Weather past 2 weeks in Stockton, California, U.S.A.

Now
69 °F

Light rain. Overcast.


Feels Like: 69 °F
Forecast: 51 / 71 °F
Wind: 10 mph from West

Location: Stockton Metropolitan Airport

Current Time: Oct 20, 2014 at 6:32:20 PM

Latest Report: Oct 20, 2014 at 5:55 PM


Visibility: 10 mi

Pressure: 29.94 "Hg

Humidity: 57%

Dew point: 53 °F

Location of StocktonLocation

Historic Weather in Stockton — Graph

°F

Stockton temperature yesterday

Maximum temperature yesterday: 84 °F (at 4:55 PM)
Minimum temperature yesterday: 51 °F (at 4:55 AM)
Average temperature yesterday: 67 °F

Past Weeks' High & Low Weather Summary

 TemperatureHumidityPressure
High95 °F (Oct 6, 3:55 PM)90% (Oct 14, 6:55 AM)30.03 "Hg (Oct 14, 6:55 AM)
Low51 °F (Oct 19, 4:55 AM)13% (Oct 12, 5:55 PM)29.78 "Hg (Oct 7, 5:55 PM)
Average70 °F52%29.91 "Hg
* Reported Oct 5 4:55 PM — Oct 20 4:55 PM, Stockton, Weather by CustomWeather, © 2014

Note: Actual official high and low records may vary slightly from our data, if they occured in-between our weather recording intervals... More about our weather records

Advertising

Stockton weather history for previous 24 hours

 ConditionsComfort  
Time TempWeatherWind HumidityBarometerVisibility
4:55 PM
Oct 20
70 °FLight rain. Mostly cloudy.9 mph53%29.93 "Hg10 mi
3:55 PM72 °FPartly sunny.17 mph52%29.93 "Hg10 mi
2:55 PM74 °FOvercast.15 mph50%29.93 "Hg10 mi
1:55 PM72 °FPartly sunny.13 mph59%29.93 "Hg10 mi
12:55 PM75 °FScattered clouds.12 mph52%29.93 "Hg10 mi
11:55 AM73 °FSunny.8 mph53%29.94 "Hg10 mi
10:55 AM70 °FSunny.3 mph61%29.95 "Hg10 mi
9:55 AM67 °FSunny.No wind68%29.94 "Hg10 mi
8:55 AM64 °FSunny.5 mph78%29.93 "Hg10 mi
7:55 AM58 °FClear.5 mph90%29.92 "Hg9 mi
6:55 AM58 °FPassing clouds.3 mph90%29.91 "Hg10 mi
5:55 AM56 °FClear.3 mph90%29.90 "Hg10 mi
4:55 AM59 °FClear.3 mph87%29.89 "Hg10 mi
3:55 AM59 °FClear.5 mph87%29.89 "Hg10 mi
2:55 AM60 °FClear.6 mph86%29.90 "Hg10 mi
1:55 AM59 °FClear.5 mph87%29.89 "Hg10 mi
12:55 AM61 °FClear.3 mph81%29.88 "Hg10 mi
11:55 PM
Oct 19
62 °FClear.5 mph80%29.88 "Hg10 mi
10:55 PM64 °FClear.7 mph73%29.87 "Hg10 mi
9:55 PM68 °FClear.8 mph63%29.86 "Hg10 mi
7:55 PM73 °FClear.13 mph53%29.84 "Hg10 mi
6:55 PM75 °FSunny.8 mph52%29.82 "Hg10 mi
Weather by CustomWeather, © 2014

See weather overviewHow to use our weather pages